Voltar ao catálogo

SL-8 DEB *

AtivoLEO
NORAD 14344·DEBRIS·🇷🇺 Russia

Lançado Apr 28, 1982 de Plesetsk Cosmodrome

Loading…

Próximas Passagens (próximas 24 horas)

TLE

AtualizadoSource: Space-Track

Época: Sep 14, 2026, 15:40 UTC

1 14344U 82037C   26257.65293274  .00001016  00000-0  24979-3 0  9998
2 14344  74.0560  32.5197 0015889 114.9632 258.0458 14.53508238261958

Acompanhe SL-8 DEB * em tempo real com AllMySat

Download on the App Store